EW4987 Weather Reports


Display with metric or nautical units.
time (UTC)temp
F
wind
direction
speed
MPH
gust
MPH
rain 1hr
in
rain 24hr
in
rain mn
in
humidity
%
barometer
mb
20260505124539 46 176 0.0 0.0 0.01 0.01 0.01 1 1003.6
20260505123023 47 199 0.0 0.0 0.00 0.00 0.00 1 1003.5
20260505121530 48 191 0.0 0.0 0.00 0.00 0.00 1 1003.4
20260505120014 49 178 0.0 0.0 0.00 0.00 0.00 1 1003.4
20260505114511 48 178 0.0 0.0 0.00 0.00 0.00 1 1003.2
20260505113005 48 150 0.0 0.0 0.00 0.00 0.00 1 1003.2
20260505111502 49 150 0.0 0.0 0.00 0.00 0.00 1 1003.2
20260505101545 50 148 0.0 0.0 0.00 0.00 0.00 1 1003.2
20260505100051 50 153 0.0 0.0 0.00 0.00 0.00 5 1003.2
20260505094536 50 175 0.0 0.0 0.00 0.00 0.00 19 1003.2
20260505093032 51 200 0.0 0.0 0.00 0.00 0.00 33 1003.1
20260505091535 51 200 0.0 0.0 0.00 0.00 0.00 36 1003.2
20260505090029 51 223 0.0 0.0 0.00 0.00 0.00 38 1003.3
20260505084528 52 194 0.0 0.0 0.00 0.00 0.00 40 1003.3
20260505083036 52 201 0.0 0.0 0.00 0.00 0.00 40 1003.4
20260505081530 52 199 0.0 0.0 0.00 0.00 0.00 42 1003.4
20260505080041 52 196 0.0 0.0 0.00 0.00 0.00 43 1003.4
20260505074526 52 182 0.0 0.0 0.00 0.00 0.00 41 1003.5
20260505073022 51 163 0.0 0.0 0.00 0.00 0.00 38 1003.5
20260505071530 50 139 0.0 0.0 0.00 0.00 0.00 41 1003.4
20260505070019 51 147 0.0 0.0 0.00 0.00 0.00 42 1003.5
20260505064515 50 146 0.0 0.0 0.00 0.00 0.00 45 1003.6
20260505063017 49 152 0.0 0.0 0.00 0.00 0.00 44 1003.5
20260505061511 49 116 0.0 0.0 0.00 0.00 0.00 39 1003.2
20260505060007 48 173 0.0 0.0 0.00 0.00 0.00 38 1003.3
20260505054503 48 155 0.0 0.0 0.00 0.00 0.00 37 1003.2
20260505053059 48 255 0.0 0.0 0.00 0.00 0.00 51 1003.3
20260505051555 52 144 0.0 0.0 0.00 0.00 0.00 52 1003.3
20260505041548 53 123 0.0 0.0 0.00 0.00 0.00 51 1003.1
20260505040036 52 100 0.0 0.0 0.00 0.00 0.00 50 1002.8
20260505034528 53 142 0.0 0.0 0.00 0.00 0.00 50 1002.6
20260505033025 53 141 0.0 0.0 0.00 0.00 0.00 50 1002.3
20260505031528 53 149 0.0 0.0 0.00 0.00 0.00 49 1002.2
20260505030015 54 148 0.0 0.0 0.00 0.00 0.00 48 1002.1
20260505024510 55 147 0.0 0.0 0.00 0.00 0.00 48 1001.9
20260505023006 56 156 0.0 0.0 0.00 0.00 0.00 46 1001.8
20260505021503 57 184 0.0 0.0 0.00 0.00 0.00 46 1001.8
20260505020105 58 177 0.0 0.0 0.00 0.00 0.00 44 1001.8
20260505014553 60 180 0.0 3.0 0.00 0.00 0.00 41 1001.5
20260505013049 60 187 0.0 0.0 0.00 0.00 0.00 41 1001.4
20260505011544 59 160 0.0 0.0 0.00 0.00 0.00 43 1001.5
20260505010103 59 150 0.0 0.0 0.00 0.00 0.00 39 1001.5
20260505004537 59 169 0.0 0.0 0.00 0.00 0.00 40 1001.6
20260505003044 58 134 0.0 0.0 0.00 0.00 0.00 43 1001.9
20260505001528 59 120 0.0 1.0 0.00 0.00 0.00 42 1002.2
20260505000023 59 236 0.0 2.0 0.00 0.00 0.00 42 1002.2
20260504234519 59 184 0.0 0.0 0.00 0.00 0.00 41 1002.3
20260504233014 60 205 0.0 4.0 0.00 0.00 0.00 41 1002.5
20260504231510 61 178 0.0 9.0 0.00 0.00 0.00 40 1002.3
20260504230010 62 360 0.0 3.0 0.00 0.00 0.00 40 1002.4
20260504224505 63 185 0.0 22.0 0.00 0.00 0.00 39 1002.2
20260504223100 64 183 4.0 19.0 0.00 0.00 0.00 35 1001.9
20260504221553 65 200 8.0 20.0 0.00 0.00 0.00 33 1001.7
20260504220055 66 274 0.0 9.0 0.00 0.00 0.00 26 1001.5
20260504214546 67 288 8.0 17.0 0.00 0.00 0.00 23 1001.6
20260504213040 68 273 0.0 0.0 0.00 0.00 0.00 23 1001.7
20260504211536 68 280 0.0 0.0 0.00 0.00 0.00 25 1001.8
20260504210030 67 293 0.0 0.0 0.00 0.00 0.00 25 1001.9
20260504204525 65 196 0.0 0.0 0.00 0.00 0.00 31 1002.2
20260504203021 64 215 0.0 0.0 0.00 0.00 0.00 30 1002.5
20260504201519 64 237 0.0 0.0 0.00 0.00 0.00 29 1002.7
20260504200017 63 196 0.0 0.0 0.00 0.00 0.00 33 1002.9
20260504194511 62 270 0.0 0.0 0.00 0.00 0.00 33 1003.2
20260504193003 61 223 0.0 0.0 0.00 0.00 0.00 32 1003.4
20260504191619 62 126 0.0 0.0 0.00 0.00 0.00 30 1003.4
20260504190055 61 360 0.0 0.0 0.00 0.00 0.00 29 1003.6
20260504184550 62 241 0.0 0.0 0.00 0.00 0.00 27 1002.9
20260504183046 62 215 0.0 0.0 0.00 0.00 0.00 27 1002.9
20260504181541 64 330 0.0 0.0 0.00 0.00 0.00 34 1003.1
20260504180121 64 329 0.0 0.0 0.00 0.00 0.00 31 1003.2
20260504174532 66 340 0.0 0.0 0.00 0.00 0.00 31 1003.3
20260504173027 66 160 0.0 0.0 0.00 0.00 0.00 34 1003.5
20260504171523 65 184 0.0 0.0 0.00 0.00 0.00 31 1003.8